This is the latest recevied weather packets stored in our database for station/object IZ8XTV-13. If no packets are shown the sender has not sent any weather packets the latest 10 day(s).
| Time | Temp. | Humidity | Pressure | Rain* | Wind** | Luminosity | Snow |
|---|---|---|---|---|---|---|---|
| 1778100506 | 17.78° C | 97% | 1015.9 hPa | 0 mm | - | - | - |
| 1778099893 | 18.33° C | 97% | 1015.9 hPa | 0 mm | - | - | - |
| 1778099282 | 18.33° C | 95% | 1016 hPa | 0 mm | - | - | - |
| 1778098671 | 18.33° C | 91% | 1016.1 hPa | 0 mm | - | - | - |
| 1778098059 | 18.33° C | 89% | 1016 hPa | 0 mm | - | - | - |
| 1778097448 | 18.33° C | 88% | 1016 hPa | 0 mm | - | - | - |
| 1778096836 | 18.89° C | 87% | 1016.2 hPa | 0 mm | - | - | - |
| 1778096225 | 18.89° C | 87% | 1016 hPa | 0 mm | - | - | - |
| 1778095614 | 19.44° C | 87% | 1015.9 hPa | 0 mm | - | - | - |
| 1778095003 | 19.44° C | 87% | 1015.7 hPa | 0 mm | - | - | - |
| 1778094392 | 19.44° C | 88% | 1015.4 hPa | 0 mm | - | - | - |
| 1778093781 | 19.44° C | 88% | 1015.2 hPa | 0 mm | - | - | - |
| 1778093170 | 19.44° C | 87% | 1015 hPa | 0 mm | - | - | - |
| 1778092559 | 19.44° C | 86% | 1014.8 hPa | 0 mm | - | - | - |
| 1778091948 | 20° C | 84% | 1014.8 hPa | 0 mm | - | - | - |
| 1778091337 | 20° C | 82% | 1014.8 hPa | 0 mm | - | - | - |
| 1778090726 | 20° C | 83% | 1014.6 hPa | 0 mm | - | - | - |
| 1778090115 | 20.56° C | 83% | 1014.4 hPa | 0 mm | - | - | - |
| 1778089504 | 20.56° C | 83% | 1014.5 hPa | 0 mm | - | - | - |
| 1778088893 | 20.56° C | 82% | 1014.4 hPa | 0 mm | - | - | - |
| 1778088282 | 21.11° C | 82% | 1014.3 hPa | 0 mm | - | - | - |
| 1778087671 | 21.11° C | 82% | 1014.3 hPa | 0 mm | - | - | - |
| 1778087060 | 21.11° C | 82% | 1014.2 hPa | 0 mm | - | - | - |
| 1778086703 | 21.67° C | 82% | 1014.3 hPa | 0 mm | - | - | - |
| 1778086090 | 21.67° C | 79% | 1014.3 hPa | 0 mm | - | - | - |
* Rain latest hour (hover to see other rain measurements)
** Current wind speed in m/s (hover to see current wind gust speed)